This demonstration page uses our WeatherBlox Daily Observations layout. Learn more.

Left ArrowRight Arrow

44.8408, -93.29828

Hourly Observations for December 8, 2019

Temp ( °F °C ) Dew Point ( °F °C ) Humidity (%) Winds ( mph kmh ) Pressure ( in mb ) Visibility ( mi km ) Precip ( " mm )
12:53 am 00:53 Mostly Cloudy 40 4.4 28 -2.2 63 63 SW 15 24 29.70 1006 10 16 0.00 0.00
1:53 am 01:53 Mostly Cloudy 40 4.4 28 -2.2 63 63 SW 13 20 29.70 1006 10 16 0.00 0.00
2:53 am 02:53 Partly Cloudy 39 3.9 29 -1.7 67 67 WSW 10 17 29.71 1006 10 16 0.00 0.00
3:53 am 03:53 Partly Cloudy 37 2.8 29 -1.7 73 73 SW 8 13 29.71 1006 10 16 0.00 0.00
4:53 am 04:53 Mostly Clear 36 2.2 29 -1.7 76 76 SW 6 9 29.71 1006 10 16 0.00 0.00
5:53 am 05:53 Mostly Clear 34 1.1 29 -1.7 82 82 WSW 6 9 29.72 1006 10 16 0.00 0.00
6:53 am 06:53 Mostly Clear 33 0.6 28 -2.2 82 82 W 8 13 29.74 1007 10 16 0.00 0.00
7:53 am 07:53 Mostly Sunny 31 -0.6 27 -2.8 85 85 WSW 6 9 29.75 1008 9 14 0.00 0.00
8:53 am 08:53 Partly Cloudy 32 0 27 -2.8 82 82 WNW 9 15 29.78 1009 10 16 0.00 0.00
9:53 am 09:53 Mostly Cloudy 33 0.6 27 -2.8 78 78 NNW 13 20 29.81 1009 9 14 0.00 0.00
10:06 am 10:06 Mostly Cloudy 31 -0.6 26 -3.3 82 82 NW 12 19 29.84 1010 8 13 0.00 0.00
10:40 am 10:40 Cloudy with Mist and Fog 31 -0.6 27 -2.8 85 85 NNW 12 19 29.85 1011 6 10 0.00 0.00
10:53 am 10:53 Cloudy with Mist and Fog 31 -0.6 27 -2.8 85 85 NNW 12 19 29.82 1010 6 10 0.00 0.00
11:53 am 11:53 Cloudy with Mist and Fog 32 0 28 -2.2 85 85 NW 7 11 29.81 1010 5 8 0.00 0.00
12:32 pm 12:32 Cloudy with Mist and Fog 33 0.6 28 -2.2 82 82 NNW 6 9 29.83 1010 5 8 0.00 0.00
12:53 pm 12:53 Cloudy with Mist and Fog 33 0.6 28 -2.2 82 82 NNW 6 9 29.81 1010 5 8 0.00 0.00
1:53 pm 13:53 Cloudy with Mist and Fog 33 0.6 28 -2.2 82 82 N 7 11 29.80 1009 5 8 0.00 0.00
2:53 pm 14:53 Cloudy 34 1.1 28 -2.2 79 79 N 6 9 29.80 1009 7 11 0.00 0.00
3:53 pm 15:53 Cloudy 34 1.1 28 -2.2 79 79 VRB 6 9 29.81 1009 7 11 0.00 0.00
4:53 pm 16:53 Cloudy 34 1.1 28 -2.2 79 79 NE 5 7 29.81 1010 9 14 0.00 0.00
5:05 pm 17:05 Cloudy 34 1.1 28 -2.2 79 79 ENE 7 11 29.83 1010 9 14 0.00 0.00
5:33 pm 17:33 Cloudy 34 1.1 28 -2.2 79 79 E 7 11 29.83 1010 9 14 0.00 0.00
5:53 pm 17:53 Cloudy 34 1.1 28 -2.2 79 79 E 7 11 29.82 1010 9 14 0.00 0.00
6:16 pm 18:16 Cloudy 34 1.1 28 -2.2 79 79 E 7 11 29.83 1010 9 14 0.00 0.00
6:53 pm 18:53 Cloudy 34 1.1 28 -2.2 79 79 E 7 11 29.80 1009 9 14 0.00 0.00
7:09 pm 19:09 Cloudy 34 1.1 28 -2.2 79 79 ENE 7 11 29.81 1010 9 14 0.00 0.00
7:31 pm 19:31 Cloudy 34 1.1 28 -2.2 79 79 E 7 11 29.80 1009 8 13 0.00 0.00
7:53 pm 19:53 Cloudy 34 1.1 28 -2.2 79 79 E 7 11 29.78 1009 8 13 0.00 0.00
8:10 pm 20:10 Cloudy 34 1.1 28 -2.2 79 79 ENE 6 9 29.79 1009 8 13 0.00 0.00
8:53 pm 20:53 Cloudy 34 1.1 28 -2.2 79 79 ENE 5 7 29.77 1008 8 13 0.00 0.00
9:53 pm 21:53 Cloudy 34 1.1 29 -1.7 82 82 ENE 5 7 29.75 1008 8 13 0.00 0.00
10:53 pm 22:53 Cloudy 34 1.1 29 -1.7 82 82 E 6 9 29.74 1007 7 11 0.00 0.00
11:53 pm 23:53 Cloudy with Mist and Fog 34 1.1 30 -1.1 85 85 ENE 7 11 29.72 1007 6 10 0.00 0.00

Powered by AerisWeather